Accueil
METAR-TAF:

METAR-TAF

Aéroports :

Greeley-Weld County Airport

Greeley, Colorado, États-Unis

latitude: 40-26N, longitude: 104-38W, altitude: 1420 m

Observation

Le bulletin a été fait il y a 16 minutes, à 14:56 UTC
Vent 7 kt de nord
Température 26°C
Humidité 26%
Pression 1020 hPa
Visibilité: 16.1 km
Ciel clair

METAR: KGXY 021456Z 36007KT 10SM CLR 26/05 A3011 RMK AO2 SLP141 T02610050 51014

Heure: 09:12 (15:12 UTC)


TAF: absent

Observations et prévisions météorologiques de plus de 4000 aéroports (messages METAR et TAF).

Les stations disponibles sont représentées par des disques jaunes et rouges sur la carte.

Passer la souris dessus pour voir le nom de la station.

Cliquer dessus pour voir les observations et prévisions météorologiques.

Pour changer de carte: cliquez sur les boutons verts avec une croix noire pour zoomer, sur le bouton vert avec un tiret pour effectuer un zoom arrière, ou sur les flèches vertes pour les cartes adjacentes.


METAR-TAF: